Iliamna, AK

10:46 AM AKDT on March 27, 2017 (GMT -0800)
Iliamna

Weather History for PAIL - March, 2014

Change the Weather History Date:

Thursday, March 13, 2014

  Actual Average Record
Temperature  
Mean Temperature 26 °F -  
Max Temperature 39 °F 30 °F 46 °F (2016)
Min Temperature 14 °F 15 °F -27 °F (1966)
Degree Days  
Heating Degree Days 38    
Moisture  
Dew Point 28 °F    
Average Humidity 91    
Maximum Humidity 100    
Minimum Humidity 71    
Precipitation  
Precipitation 0.00 in - - ()
Sea Level Pressure  
Sea Level Pressure 29.02 in    
Wind  
Wind Speed 20 mph (SSE)    
Max Wind Speed 31 mph    
Max Gust Speed 44 mph    
Visibility 6 miles    
Events Fog , Rain , Snow    
Averages and records for this station are not official NWS values.
T = Trace of Precipitation, MM = Missing Value Source: NWS Daily Summary

Daily Weather History Graph

Daily Weather History Graph

Search for Another Location

Airport or City:

Trip Planner

Search our weather history database for the weather conditions in past years. The results will help you decide how hot, cold, wet, or windy it might be!

Date:

Astronomy

Mar. 13, 2014 Rise Set
Actual Time 8:41 AM AKDT 8:17 PM AKDT
Civil Twilight 8:00 AM AKDT 8:58 PM AKDT
Nautical Twilight 7:12 AM AKDT 9:47 PM AKDT
Astronomical Twilight 6:21 AM AKDT 10:39 PM AKDT
Moon 5:26 PM AKDT (3/13) 7:26 AM AKDT (3/13)
Length of Visible Light 12h 58m
Length of Day
11h 36m
Waxing Gibbous, 92% of the Moon is Illuminated
Mar 13
Waxing Gibbous
Mar 16
Full
Mar 23
Last Quarter
Mar 30
New
Apr 7
First Quarter

Hourly Weather History & Observations

Time (AKDT) Temp. Windchill Dew Point Humidity Pressure Visibility Wind Dir Wind Speed Gust Speed Precip Events Conditions
12:10 AM 33.8 °F 19.9 °F 32.0 °F 93% 29.01 in 4.0 mi East 31.1 mph 42.6 mph 0.00 in Snow Light Snow
12:53 AM 34.0 °F 20.8 °F 32.0 °F 92% 29.01 in 6.0 mi East 27.6 mph 40.3 mph 0.00 in Snow Light Snow
1:53 AM 34.0 °F 21.5 °F 33.1 °F 96% 29.01 in 6.0 mi East 24.2 mph 41.4 mph 0.00 in Snow Light Snow
2:04 AM 33.8 °F 20.3 °F 33.8 °F 100% 29.00 in 7.0 mi East 28.8 mph 38.0 mph 0.00 in Snow Light Snow
2:12 AM 33.8 °F 20.8 °F 33.8 °F 100% 29.00 in 8.0 mi East 26.5 mph 43.7 mph 0.00 in Snow Light Snow
2:40 AM 33.8 °F 21.6 °F 33.8 °F 100% 29.01 in 5.0 mi East 23.0 mph 33.4 mph 0.00 in Snow Light Snow
2:53 AM 34.0 °F 21.8 °F 33.1 °F 96% 29.01 in 8.0 mi East 23.0 mph 38.0 mph 0.00 in Snow Light Snow
3:53 AM 34.0 °F 22.4 °F 33.1 °F 96% 29.02 in 10.0 mi East 20.7 mph 29.9 mph 0.00 in   Overcast
4:53 AM 35.1 °F 24.1 °F 32.0 °F 89% 29.00 in 10.0 mi East 19.6 mph 27.6 mph N/A   Overcast
5:53 AM 35.1 °F 24.1 °F 32.0 °F 89% 29.00 in 10.0 mi East 19.6 mph 31.1 mph N/A   Overcast
6:53 AM 36.0 °F 25.0 °F 30.9 °F 82% 29.01 in 10.0 mi East 20.7 mph 27.6 mph N/A   Mostly Cloudy
7:53 AM 37.0 °F 28.1 °F 30.9 °F 79% 29.02 in 10.0 mi East 15.0 mph 21.9 mph N/A   Overcast
8:53 AM 36.0 °F 27.5 °F 30.9 °F 82% 29.03 in 10.0 mi ENE 12.7 mph - N/A   Overcast
9:53 AM 37.0 °F 27.0 °F 30.9 °F 79% 29.03 in 10.0 mi East 18.4 mph 23.0 mph N/A   Overcast
10:53 AM 37.0 °F 27.7 °F 32.0 °F 82% 29.04 in 10.0 mi East 16.1 mph 27.6 mph N/A   Overcast
11:53 AM 37.0 °F 27.4 °F 32.0 °F 82% 29.05 in 10.0 mi East 17.3 mph 25.3 mph N/A   Overcast
12:53 PM 37.0 °F 29.8 °F 33.1 °F 86% 29.05 in 10.0 mi East 10.4 mph - N/A   Overcast
1:53 PM 37.9 °F 28.9 °F 33.1 °F 83% 29.03 in 10.0 mi East 16.1 mph 25.3 mph N/A   Overcast
2:53 PM 37.9 °F 30.5 °F 33.1 °F 83% 29.02 in 10.0 mi East 11.5 mph 20.7 mph N/A   Overcast
3:44 PM 37.4 °F 32.8 °F 33.8 °F 87% 29.00 in 10.0 mi ESE 5.8 mph - 0.00 in Rain Light Rain
3:53 PM 37.0 °F 34.5 °F 34.0 °F 89% 29.00 in 10.0 mi ESE 3.5 mph - 0.00 in Rain Light Rain
3:56 PM 37.4 °F - 33.8 °F 87% 28.99 in 10.0 mi Calm Calm - 0.00 in Rain Light Rain
4:53 PM 37.9 °F 33.5 °F 34.0 °F 86% 28.99 in 10.0 mi SSW 5.8 mph - 0.00 in   Overcast
5:16 PM 35.6 °F 28.0 °F 33.8 °F 93% 28.98 in 10.0 mi SW 10.4 mph - 0.00 in Rain Light Rain
5:32 PM 33.8 °F 24.8 °F 33.8 °F 100% 28.98 in 3.0 mi WSW 12.7 mph - 0.02 in Snow Light Snow
5:36 PM 33.8 °F 24.3 °F 33.8 °F 100% 28.98 in 2.0 mi WSW 13.8 mph - 0.02 in Snow Light Snow
5:41 PM 32.0 °F 22.5 °F 30.2 °F 93% 28.98 in 1.0 mi WSW 12.7 mph 20.7 mph 0.02 in Snow Light Snow
5:53 PM 30.0 °F 19.5 °F 30.0 °F 100% 29.00 in 0.5 mi WSW 13.8 mph 19.6 mph 0.03 in Fog , Snow Snow
6:05 PM 28.4 °F 16.6 °F 26.6 °F 93% 28.99 in 0.2 mi WSW 16.1 mph - 0.01 in Fog , Snow Snow
6:12 PM 28.4 °F 15.1 °F 26.6 °F 93% 28.99 in 0.2 mi WSW 20.7 mph 26.5 mph 0.02 in Fog , Snow Heavy Snow
6:53 PM 25.0 °F 10.6 °F 24.1 °F 96% 29.00 in 0.2 mi WSW 20.7 mph 33.4 mph 0.06 in Fog , Snow Heavy Snow
7:53 PM 23.0 °F 8.7 °F 21.9 °F 96% 29.02 in 0.2 mi WSW 18.4 mph 26.5 mph 0.06 in Fog , Snow Snow
8:15 PM 21.2 °F 7.3 °F 21.2 °F 100% 29.02 in 0.2 mi WSW 16.1 mph 27.6 mph 0.00 in Fog , Snow Snow
8:27 PM 21.2 °F 7.3 °F 19.4 °F 93% 29.02 in 0.8 mi WSW 16.1 mph 27.6 mph 0.00 in Snow Light Snow
8:45 PM 21.2 °F 6.8 °F 19.4 °F 93% 29.03 in 1.0 mi WSW 17.3 mph - 0.01 in Snow Light Snow
8:53 PM 21.0 °F 7.6 °F 19.0 °F 92% 29.05 in 1.0 mi WSW 15.0 mph 24.2 mph 0.01 in Snow Light Snow
9:16 PM 19.4 °F 6.6 °F 19.4 °F 100% 29.04 in 0.8 mi WSW 12.7 mph 25.3 mph 0.00 in Snow Light Snow
9:53 PM 19.0 °F 4.5 °F 17.1 °F 92% 29.07 in 0.8 mi WSW 16.1 mph 27.6 mph 0.01 in Snow Light Snow
10:28 PM 17.6 °F 2.7 °F 15.8 °F 93% 29.07 in 1.0 mi SW 16.1 mph - 0.01 in Snow Light Snow
10:53 PM 17.1 °F 1.5 °F 15.1 °F 92% 29.08 in 1.0 mi SW 17.3 mph - 0.01 in Snow Light Snow
11:50 PM 15.8 °F -0.2 °F 14.0 °F 93% 29.09 in 0.8 mi SW 17.3 mph 23.0 mph 0.01 in Snow Light Snow
11:53 PM 16.0 °F -0.4 °F 14.0 °F 92% 29.11 in 0.8 mi WSW 18.4 mph 26.5 mph 0.01 in Snow Light Snow